Location: Allie Creek
(37.5926°N, 89.8526°W)
Time: 18:50:58
(UTC+00:00)

Cosmos 1048 Rocket - Pass Details

Date: 26 September 2023
Orbit: 742 x 789 km, 74.0° (Epoch: 07 December)

Event Time Altitude Azimuth Distance (km) Brightness Sun altitude
Rises 00:05:55 0° 190° (S) 3,258 7.4 -3.6°
Reaches altitude 10° 00:08:18 10° 187° (S) 2,337 6.6 -4.1°
Maximum altitude 00:13:35 69° 105° (ESE) 844 4.1 -5.1°
Drops below altitude 10° 00:18:55 10° 23° (NNE) 2,357 6.3 -6.2°
Sets 00:21:19 0° 21° (NNE) 3,288 7.1 -6.7°
